Location: La Chapelle
(48.3135°N, 1.3085°W)
Time: 23:27:05
(UTC+00:00)

Resurs 01 Rocket - Pass Details

Date: 03 March 2021
Orbit: 635 x 643 km, 98.0° (Epoch: 20 April)

Event Time Altitude Azimuth Distance (km) Brightness Sun altitude
Exits shadow 19:12:39 16° 58° (ENE) 1,684 3.3 -14.1°
Drops below altitude 10° 19:15:13 10° 23° (NNE) 2,035 4.0 -14.5°
Sets 19:18:11 0° 1° (N) 2,950 5.1 -15.0°
